Other Surface Observations
Issued by NWS Tucson, AZ

Home | Current Version | Previous Version | Text Only | Print | Product List | Glossary On
Versions: 1 2 3 4 5 6 7 8 9 10 11 12 13 14 15 16 17 18 19 20 21 22 23 24 25 26 27 28 29 30 31 32 33 34 35 36 37 38 39 40 41 42 43 44 45 46 47 48 49 50
000
SXUS55 KTWC 261816
OSOTWC

WEATHER ROUNDUP FOR SOUTHEAST ARIZONA
NATIONAL WEATHER SERVICE TUCSON AZ
1115 AM MST SAT JUL 26 2014

AZZ504>506-514-261915-
LOCATION       SKY/WX    TMP DP  RH WIND       PRES   REMARKS
TUCSON         SUNNY     92  59  33 NW7       30.08F
DAVIS-MONTHAN  SUNNY     90  60  35 W8G17     30.07S
CHILDRENS PARK N/A       87  60  41 E2                PIMA CO DEQ
ALVERNON/22ND  N/A      N/A N/A N/A N/A               PIMA CO DEQ
CHERRY/GLENN   N/A      N/A N/A N/A N/A               PIMA CO DEQ
TANGERINE      N/A       87 N/A N/A SW4               PIMA CO DEQ
CONTL RANCH    N/A       89  64  44 E2                PIMA CO DEQ
GRANT/1ST      N/A       88  60  39 SW1               PIMA CO DEQ
CRAYCROFT/22ND N/A      N/A N/A N/A N/A               PIMA CO DEQ
GOLFLINKS/KOLB N/A      N/A N/A N/A N/A               PIMA CO DEQ
AJO/12TH       N/A       89  60  38 S2                PIMA CO DEQ
SAGUARO EAST   N/A      N/A N/A N/A N/A               PIMA CO DEQ
FAIRGROUNDS    N/A       86 N/A N/A W5                PIMA CO DEQ
SAGUARO        N/A       92  62  37 SW5               *SABINO CYN
SAN CARLOS     N/A       95  60  32 SW11G17           *SAN CARLOS
GREEN VALLEY   N/A       87  62  43 SW8               PIMA CO DEQ
HORSE CAMP CYN N/A       85  55  36 W13G20            *ARAVAIPA CYN
RINCON MTNS    N/A       75  55  49 W2                *NR MANNING CAMP
$$

AZZ509>511-261915-
LOCATION       SKY/WX    TMP DP  RH WIND       PRES   REMARKS
SAFFORD        SUNNY     95  56  26 W16G22    30.02F
STRAY HORSE    N/A       83  47  29 S4G10             *
TRAIL CABIN    N/A       88  51  28 E3                *N OF GRANVILLE
BLACK HILLS    N/A       94  57  29 NW15G24           *N OF FT THOMAS
DRY LAKE       N/A       84  53  35 W3                *NATANES MTNS
NOON CREEK     N/A       91  56  31 NE4G10            *PINALENO MTNS
COLUMBINE      N/A       74  51  45 NE3               *PINALENO MTNS
GUTHRIE        N/A       87  50  28 NE3G12            *SW OF GUTHRIE
$$

AZZ502-503-513-261915-
LOCATION       SKY/WX    TMP DP  RH WIND       PRES   REMARKS
NOGALES        SUNNY     85  60  42 VRB3      30.15F
SELLS          N/A       88  68  51 S6G12             *
SASABE         N/A       84  66  54 SW8G15            *ALTAR VLY
HOPKINS        N/A       69  59  70 W6G10             *SANTA RITA MTNS
CARR CYN       N/A       86  57  37 NE3               *W OF HEREFORD
$$

AZZ507-508-512-261915-
LOCATION       SKY/WX    TMP DP  RH WIND       PRES   REMARKS
SIERRA VISTA   SUNNY     87  54  32 VRB7      30.20F
DOUGLAS        SUNNY     86  59  39 NW9       30.14F
EMPIRE MTNS    N/A       84  58  42 NW6G14            *LAS CIENEGAS NCA
MULESHOE RANCH N/A       85  54  35 NW10G17           *PRESERVE
HEADQUARTERS   N/A       83  57  41 S3G14             *CHIRICAHUA MTNS
$$

.............................NOTES.............................
THIS IS AN AUTOMATED COLLECTIVE WITH MINIMAL QUALITY CONTROL.
PIMA CO DEQ SITES HAVE NONSTANDARD WIND SENSOR HEIGHTS.
PIMA CO DEQ SITES DO NOT REPORT WIND GUSTS.
* INDICATES WIND SENSORS LOCATED AT 20 FEET INSTEAD OF 33 FEET.
..............................KEY..............................
SKY/WX - SKY CONDITION/WEATHER
TMP    - TEMPERATURE IN FAHRENHEIT
DP     - DEWPOINT IN FAHRENHEIT
RH     - RELATIVE HUMIDITY IN PERCENT
WIND   - DIRECTION AND SPEED IN MILES PER HOUR (MPH)
VRB    - VARIABLE WIND DIRECTION
PRES   - MEAN SEA LEVEL PRESSURE IN INCHES OF MERCURY
         F - FALLING PRESSURE   R - RISING PRESSURE
         S - STEADY PRESSURE
VSB    - VISIBILITY IN MILES
HX     - HEAT INDEX IN FAHRENHEIT
WCI    - WIND CHILL INDEX IN FAHRENHEIT
N/A    - NOT AVAILABLE
AFB    - AIR FORCE BASE
         DAVIS-MONTHAN IS DAVIS-MONTHAN AIR FORCE BASE
CYN    - CANYON
MTNS   - MOUNTAINS
NCA    - NATIONAL CONSERVATION AREA
NR     - NEAR
VLY    - VALLEY
CONTL  - CONTINENTAL
PIMA CO DEQ - PIMA COUNTY DEPT OF ENVIRONMENTAL QUALITY



USA.gov is the U.S. government's official web portal to all federal, state and local government web resources and services.